www.pogodaiklimat.ru

Погода и климат >> Архив погоды >> Россия >> Якутия >> Эйк


ПОГОДА в Эйке

  • Прогноз погоды в Эйке
  • Монитор погоды в Эйке

АРХИВ ПОГОДЫ в Эйке

Время (UTC), дата Ветер
(напр.,м/с)
 
Видим.   Явления Облачность Т
(С)
Тd
(С)
f
(%)
Тe
(С)
Тes
(С)
Комфортность P
(гПа)
Po
(гПа)
Тmin
(С)
Tmax
(С)
R
(мм)
R24
(мм)
S
(см)
21 12.07 С 4 50 км 10/10 600 м
[Sc]
+13.2 +12.8 97 +11 +11 1011.0 975.3
00 13.07 С 3 20 км слаб. дождь 10/10 600 м
[Frnb Ns]
+12.9 +12.5 97 +11 +11 1011.3 975.5 +12.9 0.1
03 13.07 С 3 50 км {дождь} 10/10 600 м
[Frnb Ns]
+14.2 +12.9 92 +13 +13 1010.4 974.9
06 13.07 СЗ 3 50 км {дождь} 10/10 600 м
[Frnb Ns]
+15.5 +13.4 87 +15 +15 1009.6 974.2
09 13.07 СЗ 2 50 км 10/10 600 м
[Sc]
+17.4 +13.3 77 +18 +18 1008.6 973.5
12 13.07 СЗ 2 50 км 9/9 600 м
[Sc]
+17.2 +13.7 80 +18 +18 1008.4 973.3 +17.7 0.0
15 13.07 СЗ 1 50 км 8/8 1000 м
[Sc]
+15.8 +14.4 91 +16 +16 1008.7 973.3
18 13.07 СЗ 1 50 км 6/6 1000 м
[Sc]
+13.2 +12.1 93 +13 +13 1008.6 973.0
21 13.07 штиль 0 50 км 8/4 1000 м
[Sc Ac trans]
+13.6 +13.2 97 +13 +14 1008.7 973.1
00 14.07 С 3 50 км 6/0
[Ac trans]
+15.3 +13.1 87 +15 +18 1009.3 973.9 +10.5
03 14.07 С 4 50 км 8/8 600 м
[Cu med, cong]
+19.4 +12.9 66 +21 +22 комфорт 1009.5 974.6
06 14.07 С 3 50 км 8/8 600 м
[Cu med, cong]
+20.4 +12.6 61 +23 +25 комфорт 1010.6 975.8
09 14.07 С 3 50 км 8/8 600 м
[Cu med, cong]
+20.3 +11.3 56 +22 +23 комфорт 1011.0 976.2
12 14.07 С 3 50 км 4/3 600 м
[Cu med, cong Ci fib]
+20.9 +11.8 56 +23 +24 комфорт 1012.0 977.1 +21.1
15 14.07 С 1 50 км 4/0
[Ci fib]
+17.0 +12.3 74 +18 +18 1013.6 978.2
18 14.07 С 1 50 км 3/0
[Ci fib]
+15.0 +11.5 80 +16 +16 1014.8 979.1
21 14.07 С 1 50 км 3/0
[Ci fib]
+13.1 +11.2 88 +13 +14 1016.5 980.5
00 15.07 С 1 50 км 3/1 600 м
[Cu hum Ci fib]
+17.8 +11.8 68 +19 +25 1015.6 980.3 +12.0
03 15.07 С 4 50 км 8/8 600 м
[Cu med, cong]
+19.4 +8.7 50 +20 +22 1015.3 980.2
06 15.07 С 5 50 км 4/4 600 м
[Cu med, cong]
+21.3 +5.8 36 +22 +25 комфорт 1015.5 980.6
09 15.07 С 3 50 км 3/0
[Ci fib]
+22.7 +5.4 33 +23 +27 комфорт 1014.6 979.9
12 15.07 С 2 50 км 5/0
[Ci fib]
+21.6 +5.9 36 +22 +23 комфорт 1014.7 979.8 +22.8
15 15.07 С 2 50 км 3/0
[Ac trans]
+16.6 +6.7 52 +17 +17 1015.8 980.5
18 15.07 С 2 50 км 3/0
[Ac trans]
+13.0 +7.3 68 +12 +12 1017.1 981.1
21 15.07 С 1 50 км 5/0
[Ac trans]
+9.8 +6.4 79 +9 +10 1017.7 981.3
00 16.07 Ю 2 50 км 3/0
[Ac trans]
+16.6 +7.7 56 +17 +21 1016.2 980.7 +8.0
03 16.07 Ю 2 50 км 8/0
[Ci]
+21.4 +5.6 36 +22 +31 комфорт 1015.1 980.2
06 16.07 ЮВ 1 50 км 8/4 600 м
[Cu med, cong Ci]
+23.2 +9.4 41 +25 +31 комфорт 1012.6 978.1
09 16.07 ЮЗ 1 50 км 9/5 600 м
[Cu med, cong Ci]
+25.4 +10.8 40 +26 +29 жарко 1010.3 976.1
12 16.07 З 1 50 км 8/0
[Ac trans]
+24.0 +13.6 52 +26 +27 жарко 1009.4 975.0 +25.6
15 16.07 ЮЗ 3 50 км 10/10 600 м
[Cb cap]
+21.6 +14.5 64 +25 +25 комфорт 1008.1 973.5
18 16.07 ЮЗ 3 50 км {ливн. осадки} 10/10 600 м
[Cb cap]
+18.1 +14.5 79 +18 +18 1008.3 972.3
21 16.07 З 4 10 км слаб. дождь 10/10 600 м
[Frnb Ns]
+17.0 +13.5 80 +17 +17 1006.6 971.4
00 17.07 З 5 50 км в посл. час дождь 10/10 600 м
[Frnb Ns]
+17.2 +15.5 90 +17 +17 1004.9 969.9 +16.3 0.4
03 17.07 СЗ 7-11
{12}
50 км 3/3 600 м
[Cu med, cong]
+22.8 +13.3 55 +26 +28 жарко 1002.5 978.2
06 17.07 СЗ 9-15
{16}
50 км 9/9 600 м
[Cu med, cong]
+19.4 +11.2 59 +20 +20 1003.8 969.1
09 17.07 С 5-10
{17}
50 км в посл. час морось 10/10 600 м
[St]
+11.3 +10.1 92 +9 +9 1008.4 972.5
12 17.07 С 5
{10}
50 км {морось} 10/10 600 м
[Frnb]
+13.4 +9.3 76 +11 +11 1010.3 974.7 +24.1 0.0
15 17.07 С 6-10
{12}
50 км 8/8 600 м
[Sc]
+12.7 +6.8 67 +10 +10 1011.3 975.5
18 17.07 С 6-10
{11}
50 км 6/6 600 м
[Sc]
+11.0 +6.6 74 +8 +8 1012.4 976.3
21 17.07 С 4
{11}
50 км ясно +6.1 +3.5 83 +2 +3 1014.9 978.1
00 18.07 С 6-10
{11}
50 км 10/10 600 м
[Sc]
+6.8 +2.7 75 +2 +2 1015.8 979.1 +4.2
03 18.07 С 6-11
{12}
50 км 3/3 600 м
[Cu med, cong]
+11.7 +1.3 49 +9 +12 1014.9 978.9
06 18.07 СВ 7-12
{14}
50 км 3/3 600 м
[Cu med, cong]
+13.4 0.0 40 +11 +13 1015.2 979.4
09 18.07 С 7-12
{13}
50 км 6/6 600 м
[Cu med, cong]
+13.9 +1.1 42 +12 +12 1016.1 980.3
12 18.07 С 6-12
{14}
50 км 3/3 600 м
[Cu med, cong]
+13.6 -0.7 37 +12 +12 1017.3 981.4 +14.2
15 18.07 С 4
{13}
50 км 3/0
[Ci fib]
+11.4 +1.5 51 +10 +10 1018.4 982.2
18 18.07 С 3 50 км 3/0
[Ci fib]
+7.2 +1.3 66 +5 +5 1020.2 983.3
21 18.07 С 4 50 км 4/0
[Ac trans]
+8.4 +3.8 73 +5 +6 1019.7 983.0
00 19.07 С 4 50 км 3/0
[Ci fib]
+10.6 +3.0 59 +8 +12 1018.6 982.3 +7.0
03 19.07 С 6-11
{12}
50 км 6/6 600 м
[Cu med, cong]
+12.6 +2.3 49 +10 +12 1018.7 982.7
06 19.07 С 5-10
{12}
50 км 3/3 600 м
[Cu med, cong]
+15.4 -0.5 34 +14 +18 1018.7 983.0
09 19.07 С 5
{12}
50 км 3/3 600 м
[Cu med, cong]
+16.2 +0.9 35 +15 +17 1019.4 983.8
12 19.07 СВ 3 50 км ясно +16.0 +2.8 41 +16 +16 1020.9 985.1 +16.8

 

Местоположение метеостанции Эйк (Якутия, Россия): широта 66.03 долгота 117.40 высота над уровнем моря 304 м.

В архиве по умолчанию представлена погода в Эйке за последнюю неделю. Архивные данные за месяц целиком и за предыдущие месяцы, начиная с января 2011 года, Вы можете получить, выбрав интересующий диапазон дат из раскрывающегося списка и нажав кнопку "Ввод!".


*Определитесь, кто Вы:
робот инопланетянин человек

Внимание! Время в таблицах - всемирное. Для получения местного времени необходимо прибавить поправку, которая равна 9 ч.

Смотрите также архив погоды в соседних городах и на ближайших метеорологических станциях:

Погода в Шелагонцах (Якутия, Россия) (146 км)
Погода в Чумпуруке (Якутия, Россия) (202 км)
Погода в Полярном (Якутия, Россия) (236 км)
Погода в Айхале (Якутия, Россия) (270 км)
Погода в Жиганске (Якутия, Россия) (275 км)
Погода в Хабардино (Якутия, Россия) (278 км)
Погода в Сухане (Якутия, Россия) (291 км)
Погода в Нюрбе (Якутия, Россия) (309 км)
Погода в Верхневилюйске (Якутия, Россия) (316 км)
Погода в Бестяхской Звероферме (Якутия, Россия) (317 км)

Пояснения к столбцам:

Ветер - указаны скорость ветра в м/с - средняя за 10 мин, порывы в срок и между сроками (в фигурных скобках) и направление, откуда дует ветер: С - северный, СВ - северо-восточный, В - восточный, ЮВ - юго-восточный, Ю - южный, ЮЗ - юго-западный, З - западный, СЗ - северо-западный.
Видимость - горизонтальная дальность видимости в метрах или километрах. При видимости от 1 до 10 км при отсутствии осадков обычно наблюдается дымка, при ухудшении видимости до 1 км и менее - туман. В сухую погоду видимость может ухудшаться дымом, пылью или мглою.
Явления - указаны атмосферные явления, наблюдавшиеся в срок или в последний час перед сроком; фигурными скобками обозначены явления, наблюдавшиеся между сроками (за 1-3 часа до срока); квадратными скобками обозначены град или гололедные отложения с указанием их диаметра в мм.
Облачность - указаны через наклонную черту общая и нижняя облачность в баллах и высота нижней границы облаков в метрах; квадратными скобками обозначены формы облаков: Ci - перистые, Cs - перисто-слоистые, Cc - перисто-кучевые, Ac - высококучевые, As - высокослоистые, Sc - слоисто-кучевые, Ns - слоисто-дождевые, Cu - кучевые, Cb - кучево-дождевые. Подробнее классификацию облаков см. в Атласе облаков (PDF).
T - Температура воздуха - температура, измеренная на высоте 2 м над землей.
Td - Температура точки росы - температура, при понижении до которой содержащийся в воздухе водяной пар достигнет насыщения.
f - Относительная влажность воздуха - влажноcть воздуха, измеренная на высоте 2 м над землей.
Te - Эффективная температура - температура, которую ощущает одетый по сезону человек в тени. Характеристика душности погоды. При расчете учитывается влияние влажности воздуха и скорости ветра на теплоощущения человека.
Tes - Эффективная температура на солнце - температура, которую ощущает человек, с поправкой на солнечный нагрев. Характеристика знойности погоды. Зависит от высоты солнца над горизонтом, облачности и скорости ветра. Ночью, в пасмурную погоду, а также при ветре 12 м/с и более поправка равна нулю.
P - Атмосферное давление - приведенное к уровню моря атмосферное давление.
Po - Атмосферное давление - измеренное на уровне метеостанции атмосферное давление.
Tmin - Минимальная температура - минимум температуры воздуха на высоте 2 м над землей.
Tmax - Максимальная температура - максимум температуры воздуха на высоте 2 м над землей.
R - Количество осадков - Количество выпавших осадков за период времени, мм. При наведении курсора мыши на число - период времени, за который выпало указанное количество осадков.
R24 - Количество осадков - Количество выпавших осадков за 24 часа, мм.
S - Снежный покров - Высота снежного покрова, см. При наведении курсора мыши на число - состояние снежного покрова и степень покрытия местности в баллах.